Weather History for Port Isabel, TX

Change the Weather History Date:

Thursday, January 31, 2013

  Actual Average Record
Temperature  
Mean Temperature 58 °F -  
Max Temperature 71 °F - - ()
Min Temperature 46 °F - - ()
Degree Days  
Heating Degree Days 6    
Growing Degree Days 8 (Base 50)    
Moisture  
Dew Point 38 °F    
Average Humidity 48    
Maximum Humidity 75    
Minimum Humidity 33    
Precipitation  
Precipitation 0.00 in - - ()
Sea Level Pressure  
Sea Level Pressure 30.27 in    
Wind  
Wind Speed 6 mph (SE)    
Max Wind Speed 14 mph    
Max Gust Speed -    
Visibility 10 miles    
Events      
T = Trace of Precipitation, MM = Missing Value Source: NWS Daily Summary

Daily Weather History Graph

Daily Weather History Graph

Search for Another Location

Airport:

Trip Planner

Search our weather history database for the weather conditions in past years. The results will help you decide how hot, cold, wet, or windy it might be!

Date:

Astronomy

Jan. 31, 2013 Rise Set
Actual Time 7:13 AM CST 6:12 PM CST
Civil Twilight 6:49 AM CST 6:36 PM CST
Nautical Twilight 6:22 AM CST 7:03 PM CST
Astronomical Twilight 5:54 AM CST 7:31 PM CST
Moon 10:39 PM CST (1/31) 9:46 AM CST (1/31)
Length of Visible Light 11h 46m
Length of Day
10h 58m
Waning Gibbous, 79% of the Moon is Illuminated
Jan 31
Waning Gibbous
Feb 3
Last Quarter
Feb 10
New
Feb 17
First Quarter
Feb 25
Full

Hourly Weather History & Observations

Time (CST) Temp. Windchill Dew Point Humidity Pressure Visibility Wind Dir Wind Speed Gust Speed Precip Events Conditions
12:53 AM 46.0 °F 44.8 °F 32.0 °F 58% 30.26 in 10.0 mi WSW 3.5 mph - N/A   Clear
1:53 AM 48.9 °F - 32.0 °F 52% 30.26 in 10.0 mi West 5.8 mph - N/A   Clear
2:53 AM 52.0 °F - 28.0 °F 40% 30.25 in 10.0 mi WNW 4.6 mph - N/A   Clear
3:53 AM 51.1 °F - 28.9 °F 43% 30.26 in 10.0 mi WNW 5.8 mph - N/A   Clear
4:53 AM 50.0 °F - 28.0 °F 43% 30.25 in 10.0 mi NW 5.8 mph - N/A   Clear
5:53 AM 48.9 °F - 28.0 °F 44% 30.26 in 10.0 mi WNW 5.8 mph - N/A   Clear
6:53 AM 48.9 °F - 30.0 °F 48% 30.27 in 10.0 mi NW 4.6 mph - N/A   Clear
7:53 AM 50.0 °F - 28.9 °F 44% 30.30 in 10.0 mi WNW 5.8 mph - N/A   Clear
8:53 AM 52.0 °F - 30.9 °F 45% 30.32 in 10.0 mi NW 5.8 mph - N/A   Clear
9:53 AM 64.9 °F - 37.9 °F 37% 30.32 in 10.0 mi Calm Calm - N/A   Clear
10:53 AM 68.0 °F - 39.0 °F 35% 30.33 in 10.0 mi SSE 6.9 mph - N/A   Clear
11:53 AM 69.1 °F - 39.0 °F 33% 30.32 in 10.0 mi East 8.1 mph - N/A   Clear
12:53 PM 69.1 °F - 39.0 °F 33% 30.30 in 10.0 mi ESE 11.5 mph - N/A   Clear
1:53 PM 71.1 °F - 41.0 °F 34% 30.27 in 10.0 mi East 13.8 mph - N/A   Clear
2:53 PM 69.1 °F - 39.9 °F 35% 30.24 in 10.0 mi ESE 13.8 mph - N/A   Clear
3:53 PM 68.0 °F - 43.0 °F 40% 30.23 in 10.0 mi ESE 13.8 mph - N/A   Clear
4:53 PM 66.0 °F - 42.1 °F 42% 30.23 in 10.0 mi ESE 13.8 mph - N/A   Clear
5:53 PM 64.9 °F - 43.0 °F 45% 30.23 in 9.0 mi ESE 11.5 mph - N/A   Clear
6:53 PM 61.0 °F - 45.0 °F 56% 30.24 in 10.0 mi SE 6.9 mph - N/A   Clear
7:53 PM 59.0 °F - 46.0 °F 62% 30.26 in 10.0 mi ESE 6.9 mph - N/A   Clear
8:53 PM 60.1 °F - 48.9 °F 67% 30.26 in 10.0 mi SE 8.1 mph - N/A   Clear
9:53 PM 57.9 °F - 48.0 °F 70% 30.28 in 10.0 mi SE 5.8 mph - N/A   Clear
10:53 PM 57.0 °F - 48.0 °F 72% 30.29 in 10.0 mi ESE 4.6 mph - N/A   Clear
11:53 PM 55.9 °F - 48.0 °F 75% 30.30 in 10.0 mi ESE 3.5 mph - N/A   Clear